Meteo Giornale » Osservazioni meteo Croazia » Rijeka-Omisalj

ore: 14:30 - Osservazioni Meteo Rijeka-Omisalj
Lat. 45° 13' N Lon. 14° 35' E Alt. 85 metri s.l.m.

poco_nuvoloso Europe/Zagreb

27 °C

Poco Nuvoloso

Temp. 24 Ore

20 °C

31 °C

Nord-Ovest

14.8 Km/h

Dew point 17 °C

Umidità 54 %

Visibilità  10 Km

Il sole sorge alle ore 05:46

Il sole tramonta alle ore 20:29

Data e Ora Cielo e Fenomeni T °C DP °C Um. % Pres. hPa Vis. km Vento km/h
Oggi h: 14:30 poco_nuvoloso Poco Nuvoloso 27 17 54 1013 10 NO 14.8
Oggi h: 14:00 poco_nuvoloso Poco Nuvoloso 29 15 42 1013 10 O/NO 13
Oggi h: 13:30 poco_nuvoloso Poco Nuvoloso 28 14 42 1013 10 N 13
Oggi h: 13:00 poco_nuvoloso Poco Nuvoloso 28 14 42 1013 10 E/SE 11.1
Oggi h: 12:30 poco_nuvoloso Poco Nuvoloso 28 14 42 1013 10 E/SE 14.8
Oggi h: 12:00 poco_nuvoloso Poco Nuvoloso 28 14 42 1013 10 E/SE 13
Oggi h: 11:30 poco_nuvoloso Poco Nuvoloso 26 14 47 1013 10 E/SE 9.3
Oggi h: 11:00 poco_nuvoloso Poco Nuvoloso 26 14 47 1013 10 NE 13
Oggi h: 10:30 poco_nuvoloso Poco Nuvoloso 26 14 47 1012 10 NE 14.8
Oggi h: 10:00 poco_nuvoloso Poco Nuvoloso 25 14 50 1012 10 NE 14.8
Oggi h: 09:30 poco_nuvoloso Poco Nuvoloso 24 15 57 1012 10 E/NE 14.8
Oggi h: 09:00 sereno Sereno 24 15 57 1012 10 E/NE 11.1
Oggi h: 08:30 sereno Sereno 24 15 57 1012 10 E/NE 18.5
Oggi h: 08:00 sereno Sereno 24 15 57 1011 10 E/NE 18.5
Oggi h: 07:30 sereno Sereno 23 15 60 1011 10 NE 18.5
Oggi h: 07:00 sereno Sereno 23 15 60 1011 10 E/NE 16.7
Oggi h: 06:00 sereno Sereno 22 17 73 1010 10 NE 11.1
Oggi h: 05:30 sereno Sereno 20 17 82 1010 10 N 3.7
Oggi h: 05:00 sereno Sereno 22 16 68 1010 10 N 5.5
Oggi h: 04:30 sereno Sereno 21 16 73 1009 10 E/SE 7.4
Oggi h: 04:00 sereno Sereno 21 16 73 1009 10 N 1.8
Oggi h: 03:30 sereno Sereno 22 16 68 1009 10 E/SE 11.1
Oggi h: 03:00 sereno Sereno 23 17 68 1009 10 E/SE 9.3
Oggi h: 02:30 sereno Sereno 23 18 73 1009 10 E/SE 13
Oggi h: 02:00 sereno Sereno 23 17 68 1008 10 E/SE 11.1
Oggi h: 01:30 sereno Sereno 24 18 69 1008 10 E/SE 11.1
Oggi h: 01:00 sereno Sereno 24 17 64 1008 10 N 5.5
Oggi h: 00:30 poco_nuvoloso Poco Nuvoloso 24 18 69 1008 10 SE 7.4
Oggi h: 00:00 poco_nuvoloso Poco Nuvoloso 24 18 69 1008 10 SE 9.3
Ieri h: 23:30 poco_nuvoloso Poco Nuvoloso 25 18 65 1008 10 S/SE 7.4
Ieri h: 23:00 poco_nuvoloso Poco Nuvoloso 25 18 65 1008 10 N 5.5
Ieri h: 22:30 poco_nuvoloso Poco Nuvoloso 27 17 54 1008 10 O/SO 11.1
Ieri h: 21:30 poco_nuvoloso Poco Nuvoloso 27 18 57 1007 10 O 11.1
Ieri h: 21:00 poco_nuvoloso Poco Nuvoloso 27 18 57 1007 10 O/SO 9.3
Ieri h: 20:30 poco_nuvoloso Poco Nuvoloso 28 17 51 1006 10 SO 9.3
Ieri h: 20:00 nuvoloso Nuvoloso 29 17 48 1006 10 S 11.1
Ieri h: 19:30 nuvoloso Nuvoloso 29 17 48 1006 10 S 13
Ieri h: 19:00 nuvoloso Nuvoloso 29 17 48 1006 10 S/SO 14.8
Ieri h: 18:30 poco_nuvoloso Poco Nuvoloso 30 18 48 1005 10 SO 13
Ieri h: 18:00 poco_nuvoloso Poco Nuvoloso 31 17 43 1005 10 SO 13
Ieri h: 17:30 poco_nuvoloso Poco Nuvoloso 31 18 45 1005 10 SO 14.8
Ieri h: 17:00 nuvoloso Nuvoloso 30 17 45 1006 10 S/SO 14.8
Ieri h: 16:00 poco_nuvoloso Poco Nuvoloso 31 19 48 1006 10 SO 16.7
Ieri h: 15:30 nuvoloso Nuvoloso 29 18 51 1006 10 SO 16.7
Ieri h: 15:00 nuvoloso Nuvoloso 29 19 54 1006 10 SO 20.3